AAL536 KPHX-MMSD

Flight info

Callsign AAL536
Flight time N/A
Altitude 41000
Route STRRM1 TUS J92 DASVU DCT ENEKO ENEKO1A
Aircraft B772/H-SDE2E3FGHIJ5LORVWXY/LB1D1

Departure

Time N/A
Airport Phoenix Sky Harbor International Airport (KPHX)

Arrival

Time 2026-04-27 22:49
Airport Los Cabos International Airport (MMSD)
Time Latitude Longitude Altitude Speed Heading
2026-04-27 22:16 25.78841 -110.60422 40922 ft 482 kts 182°
2026-04-27 22:16 25.75510 -110.59936 40921 ft 483 kts 182°
2026-04-27 22:17 25.68849 -110.58964 40918 ft 483 kts 182°
2026-04-27 22:17 25.62219 -110.57994 40909 ft 472 kts 182°
2026-04-27 22:18 25.55809 -110.57051 40922 ft 463 kts 182°
2026-04-27 22:18 25.49465 -110.56139 40920 ft 462 kts 182°
2026-04-27 22:19 25.43093 -110.55217 40921 ft 462 kts 182°
2026-04-27 22:19 25.36710 -110.54294 40385 ft 468 kts 182°
2026-04-27 22:19 25.33479 -110.53826 39800 ft 467 kts 182°
2026-04-27 22:20 25.30283 -110.53042 39300 ft 479 kts 171°
2026-04-27 22:20 25.27213 -110.51496 38882 ft 491 kts 160°
2026-04-27 22:20 25.24387 -110.49304 38469 ft 504 kts 147°
2026-04-27 22:20 25.21931 -110.46595 38028 ft 505 kts 142°
2026-04-27 22:21 25.19542 -110.43765 37603 ft 502 kts 141°
2026-04-27 22:21 25.17190 -110.40936 37204 ft 498 kts 141°
2026-04-27 22:21 25.14854 -110.38143 36814 ft 493 kts 141°
2026-04-27 22:21 25.12526 -110.35393 36432 ft 488 kts 141°
2026-04-27 22:22 25.10207 -110.32687 36021 ft 483 kts 141°
2026-04-27 22:22 25.07896 -110.30015 35655 ft 479 kts 141°
2026-04-27 22:22 25.05598 -110.27371 35257 ft 476 kts 141°
2026-04-27 22:22 25.03309 -110.24746 34855 ft 473 kts 141°
2026-04-27 22:23 25.01032 -110.22136 34455 ft 471 kts 141°
2026-04-27 22:23 24.98795 -110.19572 34051 ft 469 kts 141°
2026-04-27 22:23 24.96537 -110.16984 33594 ft 468 kts 141°
2026-04-27 22:23 24.94287 -110.14404 33156 ft 465 kts 141°
2026-04-27 22:24 24.92054 -110.11843 32727 ft 462 kts 141°
2026-04-27 22:24 24.89831 -110.09295 32315 ft 459 kts 140°
2026-04-27 22:24 24.87624 -110.06766 31898 ft 456 kts 140°
2026-04-27 22:24 24.85429 -110.04253 31476 ft 453 kts 140°
2026-04-27 22:25 24.83249 -110.01759 31082 ft 450 kts 140°
2026-04-27 22:25 24.81084 -109.99282 30691 ft 447 kts 140°
2026-04-27 22:25 24.78933 -109.96823 30296 ft 445 kts 140°
2026-04-27 22:25 24.76823 -109.94414 29880 ft 442 kts 140°
2026-04-27 22:26 24.74699 -109.91989 29411 ft 438 kts 140°
2026-04-27 22:26 24.72595 -109.89586 28955 ft 434 kts 140°
2026-04-27 22:26 24.70512 -109.87210 28518 ft 429 kts 140°
2026-04-27 22:26 24.68451 -109.84860 28096 ft 425 kts 140°
2026-04-27 22:27 24.66411 -109.82534 27673 ft 420 kts 140°
2026-04-27 22:27 24.64389 -109.80232 27266 ft 416 kts 140°
2026-04-27 22:27 24.62386 -109.77953 26865 ft 412 kts 140°
2026-04-27 22:27 24.60430 -109.75728 26454 ft 409 kts 140°
2026-04-27 22:28 24.58463 -109.73492 26059 ft 405 kts 140°
2026-04-27 22:28 24.56516 -109.71280 25671 ft 401 kts 139°
2026-04-27 22:28 24.54584 -109.69085 25284 ft 398 kts 139°
2026-04-27 22:28 24.52667 -109.66909 24900 ft 395 kts 139°
2026-04-27 22:29 24.50762 -109.64747 24501 ft 392 kts 139°
2026-04-27 22:29 24.48870 -109.62601 24114 ft 390 kts 139°
2026-04-27 22:29 24.46989 -109.60468 23727 ft 388 kts 139°
2026-04-27 22:29 24.45119 -109.58349 23314 ft 385 kts 139°
2026-04-27 22:30 24.43287 -109.56273 22910 ft 382 kts 139°
2026-04-27 22:30 24.41450 -109.54192 22526 ft 378 kts 139°
2026-04-27 22:30 24.39626 -109.52127 22140 ft 375 kts 139°
2026-04-27 22:30 24.37822 -109.50085 21773 ft 371 kts 139°
2026-04-27 22:31 24.36036 -109.48066 21407 ft 368 kts 139°
2026-04-27 22:31 24.34264 -109.46063 21029 ft 364 kts 139°
2026-04-27 22:31 24.32378 -109.44319 20651 ft 347 kts 156°
2026-04-27 22:31 24.30155 -109.43493 20310 ft 334 kts 176°
2026-04-27 22:32 24.27869 -109.43424 19927 ft 325 kts 191°
2026-04-27 22:32 24.25694 -109.43878 19564 ft 321 kts 196°
2026-04-27 22:32 24.23526 -109.44447 19183 ft 320 kts 197°
2026-04-27 22:32 24.21365 -109.45034 18789 ft 320 kts 197°
2026-04-27 22:33 24.19205 -109.45616 18398 ft 320 kts 196°
2026-04-27 22:33 24.17040 -109.46191 17976 ft 320 kts 196°
2026-04-27 22:33 24.14880 -109.46757 17559 ft 319 kts 195°
2026-04-27 22:33 24.12726 -109.47315 17163 ft 317 kts 195°
2026-04-27 22:34 24.10582 -109.47866 16767 ft 316 kts 195°
2026-04-27 22:34 24.08474 -109.48406 16389 ft 314 kts 195°
2026-04-27 22:34 24.06350 -109.48949 15996 ft 313 kts 195°
2026-04-27 22:34 24.04233 -109.49490 15601 ft 312 kts 194°
2026-04-27 22:35 24.02123 -109.50028 15214 ft 311 kts 194°
2026-04-27 22:35 24.00018 -109.50564 14832 ft 310 kts 194°
2026-04-27 22:35 23.97924 -109.51098 14446 ft 309 kts 194°
2026-04-27 22:35 23.95831 -109.51631 14043 ft 309 kts 194°
2026-04-27 22:36 23.93737 -109.52164 13639 ft 309 kts 194°
2026-04-27 22:36 23.91650 -109.52695 13213 ft 308 kts 194°
2026-04-27 22:36 23.89587 -109.53287 12806 ft 306 kts 197°
2026-04-27 22:36 23.87602 -109.53999 12453 ft 303 kts 199°
2026-04-27 22:37 23.85620 -109.54749 12087 ft 300 kts 199°
2026-04-27 22:37 23.83652 -109.55498 11713 ft 299 kts 199°
2026-04-27 22:37 23.81691 -109.56239 11325 ft 297 kts 199°
2026-04-27 22:37 23.79739 -109.56972 10944 ft 296 kts 199°
2026-04-27 22:38 23.77791 -109.57699 10557 ft 295 kts 198°
2026-04-27 22:38 23.75850 -109.58421 10236 ft 292 kts 198°
2026-04-27 22:38 23.73957 -109.59122 10085 ft 283 kts 198°
2026-04-27 22:38 23.72111 -109.59805 9804 ft 279 kts 199°
2026-04-27 22:39 23.70298 -109.60474 9451 ft 278 kts 199°
2026-04-27 22:39 23.68472 -109.61148 9108 ft 276 kts 199°
2026-04-27 22:39 23.66654 -109.61818 8762 ft 275 kts 199°
2026-04-27 22:39 23.64845 -109.62484 8419 ft 274 kts 199°
2026-04-27 22:40 23.63044 -109.63148 8094 ft 273 kts 199°
2026-04-27 22:40 23.61249 -109.63808 7768 ft 272 kts 199°
2026-04-27 22:40 23.59451 -109.64471 7424 ft 273 kts 200°
2026-04-27 22:40 23.57653 -109.65133 7094 ft 273 kts 200°
2026-04-27 22:41 23.55856 -109.65793 6764 ft 272 kts 200°
2026-04-27 22:41 23.54061 -109.66453 6442 ft 273 kts 200°
2026-04-27 22:41 23.52283 -109.67106 6093 ft 273 kts 201°
2026-04-27 22:41 23.50483 -109.67770 5744 ft 273 kts 201°
2026-04-27 22:42 23.48685 -109.68432 5424 ft 273 kts 201°
2026-04-27 22:42 23.46890 -109.69093 5079 ft 272 kts 200°
2026-04-27 22:42 23.45097 -109.69750 4764 ft 272 kts 201°
2026-04-27 22:42 23.43306 -109.70407 4415 ft 271 kts 200°
2026-04-27 22:43 23.41528 -109.71060 4279 ft 267 kts 200°
2026-04-27 22:43 23.39811 -109.71689 4182 ft 250 kts 201°
2026-04-27 22:43 23.38270 -109.72254 4027 ft 225 kts 201°
2026-04-27 22:43 23.36862 -109.72769 3906 ft 201 kts 201°
2026-04-27 22:44 23.35623 -109.73221 3797 ft 175 kts 200°
2026-04-27 22:44 23.34567 -109.73607 3548 ft 147 kts 200°
2026-04-27 22:44 23.33637 -109.73949 3118 ft 136 kts 201°
2026-04-27 22:44 23.32675 -109.74158 2950 ft 145 kts 175°
2026-04-27 22:45 23.31697 -109.73968 2576 ft 142 kts 172°
2026-04-27 22:45 23.30702 -109.73845 2247 ft 146 kts 174°
2026-04-27 22:45 23.29671 -109.73726 2066 ft 149 kts 173°
2026-04-27 22:45 23.28666 -109.73609 2010 ft 146 kts 172°
2026-04-27 22:46 23.27668 -109.73495 1997 ft 141 kts 173°
2026-04-27 22:46 23.26698 -109.73384 2008 ft 143 kts 172°
2026-04-27 22:46 23.25698 -109.73271 2003 ft 144 kts 173°
2026-04-27 22:46 23.24702 -109.73156 2014 ft 145 kts 173°
2026-04-27 22:47 23.23702 -109.73042 1984 ft 143 kts 173°
2026-04-27 22:47 23.22706 -109.72926 1822 ft 148 kts 172°
2026-04-27 22:47 23.21677 -109.72807 1637 ft 145 kts 171°
2026-04-27 22:47 23.20683 -109.72688 1430 ft 143 kts 172°
2026-04-27 22:48 23.19732 -109.72570 1180 ft 130 kts 173°
2026-04-27 22:48 23.18898 -109.72497 951 ft 111 kts 170°
2026-04-27 22:48 23.18086 -109.72405 752 ft 123 kts 167°
2026-04-27 22:48 23.17243 -109.72313 546 ft 120 kts 168°
2026-04-27 22:49 23.16423 -109.72217 407 ft 119 kts 168°
2026-04-27 22:49 23.15694 -109.72128 377 ft 83 kts 174°
2026-04-27 22:49 23.15241 -109.72075 368 ft 38 kts 174°
2026-04-27 22:49 23.15068 -109.72049 366 ft 22 kts 160°
2026-04-27 22:50 23.14936 -109.71968 365 ft 22 kts 146°
2026-04-27 22:50 23.14831 -109.71868 364 ft 14 kts 102°
2026-04-27 22:50 23.14928 -109.71836 364 ft 28 kts 352°
2026-04-27 22:50 23.15118 -109.71860 365 ft 28 kts 356°
2026-04-27 22:51 23.15309 -109.71880 371 ft 28 kts 354°
2026-04-27 22:51 23.15491 -109.71861 370 ft 26 kts 31°
2026-04-27 22:51 23.15594 -109.71786 377 ft 14 kts 70°
2026-04-27 22:51 23.15597 -109.71766 378 ft 0 kts 81°